STARLINK-32141, 60290

Orbit data source: Space-Track

STARLINK-32141, 60290 is a payload satellite owned by SpaceX/Seattle (US) in LEO that was launched on Sun, 28 Jul 2024 UTC via an FALCON 9 launch vehicle from the Air Force Eastern Test Range (AFETR). Payload-class satellites include a variety of spacecraft equipped with specific instruments for various scientific and technological missions. These include communications satellites like Starlink; space stations such as the ISS; scientific satellites like the Hubble; Earth observation satellites from companies like Planet Labs, Umbra, and HawkEye 360; GPS; miniature CubeSats for education and research; and military/defense satellites.

Loading next visibility...
Identifier
60290, 2024-132N
Orbit
LEO
Last TLE update
21 hours ago
Origin
Manufacturer
SpaceX/Seattle
Mission
Operational spacecraft
Bus & Motor
STARLINK V2M, Unknown motor
Mass
730 kg wet, ~700 kg dry
Launch date (UTC)
2024-07-28 (11 months ago)
Launch vehicle
FALCON 9
Launch site
Air Force Eastern Test Range (AFETR)
Object type
Payload
Rocket body
Debris
Shape & HBR
Unknown
Radar Cross Section
Large (>1 m²)

Expand to show TLE details & history

TLE from 21 hours ago
0 STARLINK-32141
1 60290U 24132N   25191.12795062 -.00000356  00000-0  88328-7 0  9990
2 60290  53.1597  99.0669 0001219 102.7555 257.3582 15.30188593 54426
Epoch: 2025-07-10T03:04Z
TLE epoch observation values (Epoch: 2025-07-10T03:04:14.933Z)
Latitude
-0.00003°
Longitude
124.70598°
Altitude
476.332 km
Speed
7.629 km/s
True Right ascension
06h 36m 16s
True Declination
0° 00' 00"
Sunlit
Object was in daylight at epoch
Visualization orbit readout
Latitude
44.93285°
Longitude
168.7229°
Altitude
479.314 km
Speed
7.632 km/s
Apparent Right ascension
04h 43m 09s
Apparent Declination
13° 42' 35"
Sunlit
Object is in daylight
Visualization observer readout
Local Sidereal Time
11:59:08
Azimuth
292.724° NW
Elevation
-5.191°
Doppler factor
1
Orbital elements
Apogee altitude
476.341 km
Perigee altitude
474.67 km
Semi-major axis
6,853.643 km
Eccentricity
0.00012
Inclination
53.1597°
RAAN
99.0669°
Arg. of periapsis
102.7555°
True anomaly
Unknown
Mean anomaly
257.3582°
Eccentric anomaly
Unknown
Mean motion
3.82526 °/min
Orbital period
94.11 mins
BSTAR
8.8328e-8
Loading maneuver chart data...
Loading SW <> Apogee altitude chart data...
Loading historical data...
Loading historical data...
Loading historical data...
Loading historical data...
Loading historical data...
Loading historical data...
Loading historical data...

STARLINK-32141 Visibility forecast

Observer location: undefined°, undefined°

Span
Click to sort rows by Start time (UTC) header in descending order
Start Az.
Max El. time (UTC)
Max El. Az.
Max El.
End time (UTC)
End Az.
5 mins2025-07-11 03:05:01.867Z320.802° NNW2025-07-11 03:07:01.867Z4.853° NNE39.861°2025-07-11 03:10:01.867Z115.202° SE
5 mins2025-07-11 20:01:01.867Z209.42° SW2025-07-11 20:03:01.867Z122.345° SE41.203°2025-07-11 20:06:01.867Z57.32° ENE
|